THORAD AGENA D DEB, 4135

Orbit data source: Space-Track

THORAD AGENA D DEB, 4135 is space debris in LEO originally from a launch on Tue, 30 Sep 1969 UTC launched from the Air Force Western Test Range (AFWTR). Debris objects in space refer to the collection of defunct objects orbiting the Earth. Examples of debris include non-operational satellites, rocket bodies, and fragments generated from explosions, collisions, or faulty payload assembly.

Loading next visibility...
Identifier
4135, 1969-082DP
Orbit
LEO
Country
Flag of USUS
Related business
Manufacturer
Unknown
Mission
Spacecraft
Bus & Motor
Unknown
Mass
Unknown
Launch date (UTC)
1969-09-30 (57 years ago)
Launch vehicle
Unknown
Launch site
Air Force Western Test Range (AFWTR)
Object type
Payload
Rocket body
Debris
Shape & HBR
Unknown shape, 0.3 m
Radar Cross Section
Medium (>0.1 m² and <1 m²)

Expand to show TLE details & history
Last TLE update: 16 hours ago

TLE from 16 hours ago
0 THORAD AGENA D DEB
1 04135U 69082DP  26173.70492707  .00000232  00000-0  12403-3 0  9993
2 04135  69.9792 155.8552 0049240 247.9414 111.6473 14.24246803932223
Epoch: 2026-06-22T16:55Z
TLE epoch observation values (Epoch: 2026-06-22T16:55:05.698Z)
Latitude
-0.00005°
Longitude
-8.80558°
Altitude
826.579 km
Speed
7.433 km/s
True Right ascension
10h 23m 25s
True Declination
0° 00' 00"
Sunlit
Object was in daylight at epoch
Visualization orbit readout
Latitude
Unknown
Longitude
Unknown
Altitude
Unknown
Speed
Unknown
Apparent Right ascension
Unknown
Apparent Declination
Unknown
Sunlit
N/A
Visualization observer readout
Local Sidereal Time
19:56:30
Azimuth
Unknown
Elevation
Unknown
Doppler factor
Unknown
Orbital elements
Apogee altitude
844.435 km
Perigee altitude
773.655 km
Semi-major axis
7,187.182 km
Eccentricity
0.00492
Inclination
69.9792°
RAAN
155.8552°
Arg. of periapsis
247.9414°
True anomaly
112.17056°
Mean anomaly
111.6473°
Eccentric anomaly
111.90905°
Mean motion
3.56209 °/min
Orbital period
101.06 mins
BSTAR
0.00012403

Documentation

Showing up to 5 results
|